Location: Wanzleben
(52.0609°N, 11.4408°E)
Time: 11:24:31
(UTC+00:00)

Cosmos 2279 Rocket - Pass Details

Date: 18 September 2020
Orbit: 963 x 979 km, 82.9° (Epoch: 30 October)

Event Time Altitude Azimuth Distance (km) Brightness Sun altitude
Exits shadow 20:20:52 62° 154° (SSE) 1,096 3.9 -26.0°
Maximum altitude 20:21:51 74° 96° (E) 1,019 3.9 -26.1°
Drops below altitude 10° 20:28:08 10° 13° (NNE) 2,745 6.7 -26.8°
Sets 20:30:40 0° 12° (NNE) 3,697 7.5 -27.1°
